Year,Month,Day,Hour,Minute,Value (Times are PST for temperature in C)
2008,09,16,00,00,13.60
2008,09,16,00,01,13.60
2008,09,16,00,02,13.60
2008,09,16,00,03,13.60
2008,09,16,00,04,13.60
2008,09,16,00,05,13.60
2008,09,16,00,06,13.60
2008,09,16,00,07,13.60
2008,09,16,00,08,13.60
2008,09,16,00,09,13.60
2008,09,16,00,10,13.60
2008,09,16,00,11,13.60
2008,09,16,00,12,13.60
2008,09,16,00,13,13.60
2008,09,16,00,14,13.50
2008,09,16,00,15,13.50
2008,09,16,00,16,13.50
2008,09,16,00,17,13.50
2008,09,16,00,18,13.50
2008,09,16,00,19,13.50
2008,09,16,00,20,13.50
2008,09,16,00,21,13.50
2008,09,16,00,22,13.50
2008,09,16,00,23,13.50
2008,09,16,00,24,13.50
2008,09,16,00,25,13.50
2008,09,16,00,26,13.50
2008,09,16,00,27,13.40
2008,09,16,00,28,13.40
2008,09,16,00,29,13.40
2008,09,16,00,30,13.40
2008,09,16,00,31,13.30
2008,09,16,00,32,13.30
2008,09,16,00,33,13.30
2008,09,16,00,34,13.30
2008,09,16,00,35,13.30
2008,09,16,00,36,13.30
2008,09,16,00,37,13.30
2008,09,16,00,38,13.30
2008,09,16,00,39,13.20
2008,09,16,00,40,13.20
2008,09,16,00,41,13.20
2008,09,16,00,42,13.20
2008,09,16,00,43,13.20
2008,09,16,00,44,13.20
2008,09,16,00,45,13.20
2008,09,16,00,46,13.20
2008,09,16,00,47,13.20
2008,09,16,00,48,13.20
2008,09,16,00,49,13.20
2008,09,16,00,50,13.20
2008,09,16,00,51,13.20
2008,09,16,00,52,13.20
2008,09,16,00,53,13.20
2008,09,16,00,54,13.20
2008,09,16,00,55,13.20
2008,09,16,00,56,13.20
2008,09,16,00,57,13.20
2008,09,16,00,58,13.20
2008,09,16,00,59,13.20
2008,09,16,01,00,13.10
2008,09,16,01,01,13.10
2008,09,16,01,02,13.10
2008,09,16,01,03,13.10
2008,09,16,01,04,13.10
2008,09,16,01,05,13.10
2008,09,16,01,06,13.10
2008,09,16,01,07,13.10
2008,09,16,01,08,13.10
2008,09,16,01,09,13.10
2008,09,16,01,10,13.10
2008,09,16,01,11,13.10
2008,09,16,01,12,13.10
2008,09,16,01,13,13.10
2008,09,16,01,14,13.20
2008,09,16,01,15,13.20
2008,09,16,01,16,13.20
2008,09,16,01,17,13.20
2008,09,16,01,18,13.20
2008,09,16,01,19,13.20
2008,09,16,01,20,13.20
2008,09,16,01,21,13.20
2008,09,16,01,22,13.30
2008,09,16,01,23,13.30
2008,09,16,01,24,13.30
2008,09,16,01,25,13.30
2008,09,16,01,26,13.40
2008,09,16,01,27,13.40
2008,09,16,01,28,13.40
2008,09,16,01,29,13.40
2008,09,16,01,30,13.50
2008,09,16,01,31,13.50
2008,09,16,01,32,13.50
2008,09,16,01,33,13.60
2008,09,16,01,34,13.70
2008,09,16,01,35,13.70
2008,09,16,01,36,13.70
2008,09,16,01,37,13.70
2008,09,16,01,38,13.80
2008,09,16,01,39,13.80
2008,09,16,01,40,13.80
2008,09,16,01,41,13.80
2008,09,16,01,42,13.80
2008,09,16,01,43,13.80
2008,09,16,01,44,13.80
2008,09,16,01,45,13.80
2008,09,16,01,46,13.90
2008,09,16,01,47,13.90
2008,09,16,01,48,13.90
2008,09,16,01,49,14.00
2008,09,16,01,50,14.00
2008,09,16,01,51,14.10
2008,09,16,01,52,14.10
2008,09,16,01,53,14.20
2008,09,16,01,54,14.20
2008,09,16,01,55,14.20
2008,09,16,01,56,14.20
2008,09,16,01,57,14.30
2008,09,16,01,58,14.40
2008,09,16,01,59,14.40
2008,09,16,02,00,14.40
2008,09,16,02,01,14.40
2008,09,16,02,02,14.40
2008,09,16,02,03,14.40
2008,09,16,02,04,14.40
2008,09,16,02,05,14.40
2008,09,16,02,06,14.40
2008,09,16,02,07,14.40
2008,09,16,02,08,14.50
2008,09,16,02,09,14.50
2008,09,16,02,10,14.50
2008,09,16,02,11,14.50
2008,09,16,02,12,14.60
2008,09,16,02,13,14.60
2008,09,16,02,14,14.60
2008,09,16,02,15,14.60
2008,09,16,02,16,14.70
2008,09,16,02,17,14.70
2008,09,16,02,18,14.70
2008,09,16,02,19,14.70
2008,09,16,02,20,14.70
2008,09,16,02,21,14.70
2008,09,16,02,22,14.70
2008,09,16,02,23,14.70
2008,09,16,02,24,14.70
2008,09,16,02,25,14.70
2008,09,16,02,26,14.70
2008,09,16,02,27,14.80
2008,09,16,02,28,14.80
2008,09,16,02,29,14.80
2008,09,16,02,30,14.80
2008,09,16,02,31,14.80
2008,09,16,02,32,14.80
2008,09,16,02,33,14.80
2008,09,16,02,34,14.80
2008,09,16,02,35,14.80
2008,09,16,02,36,14.80
2008,09,16,02,37,14.80
2008,09,16,02,38,14.80
2008,09,16,02,39,14.80
2008,09,16,02,40,14.80
2008,09,16,02,41,14.80
2008,09,16,02,42,14.80
2008,09,16,02,43,14.80
2008,09,16,02,44,14.70
2008,09,16,02,45,14.70
2008,09,16,02,46,14.60
2008,09,16,02,47,14.60
2008,09,16,02,48,14.60
2008,09,16,02,49,14.50
2008,09,16,02,50,14.50
2008,09,16,02,51,14.40
2008,09,16,02,52,14.40
2008,09,16,02,53,14.30
2008,09,16,02,54,14.20
2008,09,16,02,55,14.20
2008,09,16,02,56,14.20
2008,09,16,02,57,14.20
2008,09,16,02,58,14.10
2008,09,16,02,59,14.10
2008,09,16,03,00,14.00
2008,09,16,03,01,14.00
2008,09,16,03,02,13.90
2008,09,16,03,03,13.90
2008,09,16,03,04,13.90
2008,09,16,03,05,13.80
2008,09,16,03,06,13.80
2008,09,16,03,07,13.70
2008,09,16,03,08,13.70
2008,09,16,03,09,13.70
2008,09,16,03,10,13.60
2008,09,16,03,11,13.60
2008,09,16,03,12,13.50
2008,09,16,03,13,13.50
2008,09,16,03,14,13.40
2008,09,16,03,15,13.40
2008,09,16,03,16,13.40
2008,09,16,03,17,13.30
2008,09,16,03,18,13.30
2008,09,16,03,19,13.30
2008,09,16,03,20,13.30
2008,09,16,03,21,13.20
2008,09,16,03,22,13.20
2008,09,16,03,23,13.20
2008,09,16,03,24,13.10
2008,09,16,03,25,13.10
2008,09,16,03,26,13.10
2008,09,16,03,27,13.00
2008,09,16,03,28,13.00
2008,09,16,03,29,12.90
2008,09,16,03,30,12.90
2008,09,16,03,31,12.80
2008,09,16,03,32,12.80
2008,09,16,03,33,12.80
2008,09,16,03,34,12.80
2008,09,16,03,35,12.70
2008,09,16,03,36,12.70
2008,09,16,03,37,12.70
2008,09,16,03,38,12.70
2008,09,16,03,39,12.60
2008,09,16,03,40,12.60
2008,09,16,03,41,12.60
2008,09,16,03,42,12.60
2008,09,16,03,43,12.60
2008,09,16,03,44,12.50
2008,09,16,03,45,12.50
2008,09,16,03,46,12.50
2008,09,16,03,47,12.50
2008,09,16,03,48,12.50
2008,09,16,03,49,12.40
2008,09,16,03,50,12.40
2008,09,16,03,51,12.40
2008,09,16,03,52,12.40
2008,09,16,03,53,12.40
2008,09,16,03,54,12.40
2008,09,16,03,55,12.40
2008,09,16,03,56,12.40
2008,09,16,03,57,12.40
2008,09,16,03,58,12.40
2008,09,16,03,59,12.40
2008,09,16,04,00,12.40
2008,09,16,04,01,12.40
2008,09,16,04,02,12.40
2008,09,16,04,03,12.40
2008,09,16,04,04,12.40
2008,09,16,04,05,12.30
2008,09,16,04,06,12.30
2008,09,16,04,07,12.30
2008,09,16,04,08,12.30
2008,09,16,04,09,12.30
2008,09,16,04,10,12.30
2008,09,16,04,11,12.30
2008,09,16,04,12,12.20
2008,09,16,04,13,12.20
2008,09,16,04,14,12.20
2008,09,16,04,15,12.20
2008,09,16,04,16,12.20
2008,09,16,04,17,12.20
2008,09,16,04,18,12.10
2008,09,16,04,19,12.10
2008,09,16,04,20,12.10
2008,09,16,04,21,12.10
2008,09,16,04,22,12.10
2008,09,16,04,23,12.10
2008,09,16,04,24,12.10
2008,09,16,04,25,12.10
2008,09,16,04,26,12.10
2008,09,16,04,27,12.10
2008,09,16,04,28,12.10
2008,09,16,04,29,12.10
2008,09,16,04,30,12.10
2008,09,16,04,31,12.10
2008,09,16,04,32,12.10
2008,09,16,04,33,12.10
2008,09,16,04,34,12.00
2008,09,16,04,35,12.00
2008,09,16,04,36,12.00
2008,09,16,04,37,12.00
2008,09,16,04,38,12.00
2008,09,16,04,39,12.00
2008,09,16,04,40,12.00
2008,09,16,04,41,12.00
2008,09,16,04,42,11.90
2008,09,16,04,43,11.90
2008,09,16,04,44,11.90
2008,09,16,04,45,11.80
2008,09,16,04,46,11.80
2008,09,16,04,47,11.80
2008,09,16,04,48,11.80
2008,09,16,04,49,11.80
2008,09,16,04,50,11.80
2008,09,16,04,51,11.80
2008,09,16,04,52,11.80
2008,09,16,04,53,11.70
2008,09,16,04,54,11.70
2008,09,16,04,55,11.70
2008,09,16,04,56,11.60
2008,09,16,04,57,11.60
2008,09,16,04,58,11.60
2008,09,16,04,59,11.60
2008,09,16,05,00,11.60
2008,09,16,05,01,11.60
2008,09,16,05,02,11.60
2008,09,16,05,03,11.60
2008,09,16,05,04,11.60
2008,09,16,05,05,11.60
2008,09,16,05,06,11.60
2008,09,16,05,07,11.60
2008,09,16,05,08,11.60
2008,09,16,05,09,11.60
2008,09,16,05,10,11.60
2008,09,16,05,11,11.60
2008,09,16,05,12,11.60
2008,09,16,05,13,11.60
2008,09,16,05,14,11.60
2008,09,16,05,15,11.60
2008,09,16,05,16,11.40
2008,09,16,05,17,11.40
2008,09,16,05,18,11.40
2008,09,16,05,19,11.40
2008,09,16,05,20,11.40
2008,09,16,05,21,11.40
2008,09,16,05,22,11.40
2008,09,16,05,23,11.30
2008,09,16,05,24,11.30
2008,09,16,05,25,11.30
2008,09,16,05,26,11.30
2008,09,16,05,27,11.20
2008,09,16,05,28,11.20
2008,09,16,05,29,11.20
2008,09,16,05,30,11.20
2008,09,16,05,31,11.20
2008,09,16,05,32,11.20
2008,09,16,05,33,11.20
2008,09,16,05,34,11.20
2008,09,16,05,35,11.20
2008,09,16,05,36,11.20
2008,09,16,05,37,11.20
2008,09,16,05,38,11.30
2008,09,16,05,39,11.30
2008,09,16,05,40,11.30
2008,09,16,05,41,11.30
2008,09,16,05,42,11.30
2008,09,16,05,43,11.30
2008,09,16,05,44,11.40
2008,09,16,05,45,11.40
2008,09,16,05,46,11.40
2008,09,16,05,47,11.40
2008,09,16,05,48,11.40
2008,09,16,05,49,11.40
2008,09,16,05,50,11.40
2008,09,16,05,51,11.40
2008,09,16,05,52,11.40
2008,09,16,05,53,11.50
2008,09,16,05,54,11.60
2008,09,16,05,55,11.60
2008,09,16,05,56,11.60
2008,09,16,05,57,11.60
2008,09,16,05,58,11.60
2008,09,16,05,59,11.60
2008,09,16,06,00,11.60
2008,09,16,06,01,11.60
2008,09,16,06,02,11.60
2008,09,16,06,03,11.60
2008,09,16,06,04,11.60
2008,09,16,06,05,11.60
2008,09,16,06,06,11.60
2008,09,16,06,07,11.60
2008,09,16,06,08,11.70
2008,09,16,06,09,11.70
2008,09,16,06,10,11.70
2008,09,16,06,11,11.70
2008,09,16,06,12,11.70
2008,09,16,06,13,11.70
2008,09,16,06,14,11.70
2008,09,16,06,15,11.70
2008,09,16,06,16,11.70
2008,09,16,06,17,11.80
2008,09,16,06,18,11.80
2008,09,16,06,19,11.80
2008,09,16,06,20,11.70
2008,09,16,06,21,11.70
2008,09,16,06,22,11.70
2008,09,16,06,23,11.70
2008,09,16,06,24,11.70
2008,09,16,06,25,11.70
2008,09,16,06,26,11.70
2008,09,16,06,27,11.70
2008,09,16,06,28,11.70
2008,09,16,06,29,11.60
2008,09,16,06,30,11.60
2008,09,16,06,31,11.60
2008,09,16,06,32,11.60
2008,09,16,06,33,11.60
2008,09,16,06,34,11.60
2008,09,16,06,35,11.60
2008,09,16,06,36,11.60
2008,09,16,06,37,11.60
2008,09,16,06,38,11.60
2008,09,16,06,39,11.60
2008,09,16,06,40,11.60
2008,09,16,06,41,11.60
2008,09,16,06,42,11.60
2008,09,16,06,43,11.60
2008,09,16,06,44,11.60
2008,09,16,06,45,11.60
2008,09,16,06,46,11.60
2008,09,16,06,47,11.60
2008,09,16,06,48,11.60
2008,09,16,06,49,11.60
2008,09,16,06,50,11.70
2008,09,16,06,51,11.80
2008,09,16,06,52,11.80
2008,09,16,06,53,11.90
2008,09,16,06,54,12.00
2008,09,16,06,55,12.10
2008,09,16,06,56,12.30
2008,09,16,06,57,12.40
2008,09,16,06,58,12.50
2008,09,16,06,59,12.60
2008,09,16,07,00,12.60
2008,09,16,07,01,12.70
2008,09,16,07,02,12.80
2008,09,16,07,03,12.80
2008,09,16,07,04,12.90
2008,09,16,07,05,13.00
2008,09,16,07,06,13.00
2008,09,16,07,07,13.10
2008,09,16,07,08,13.10
2008,09,16,07,09,13.20
2008,09,16,07,10,13.20
2008,09,16,07,11,13.20
2008,09,16,07,12,13.30
2008,09,16,07,13,13.30
2008,09,16,07,14,13.30
2008,09,16,07,15,13.30
2008,09,16,07,16,13.30
2008,09,16,07,17,13.30
2008,09,16,07,18,13.30
2008,09,16,07,19,13.30
2008,09,16,07,20,13.40
2008,09,16,07,21,13.40
2008,09,16,07,22,13.40
2008,09,16,07,23,13.40
2008,09,16,07,24,13.40
2008,09,16,07,25,13.40
2008,09,16,07,26,13.50
2008,09,16,07,27,13.50
2008,09,16,07,28,13.50
2008,09,16,07,29,13.50
2008,09,16,07,30,13.50
2008,09,16,07,31,13.50
2008,09,16,07,32,13.60
2008,09,16,07,33,13.60
2008,09,16,07,34,13.60
2008,09,16,07,35,13.60
2008,09,16,07,36,13.60
2008,09,16,07,37,13.60
2008,09,16,07,38,13.60
2008,09,16,07,39,13.60
2008,09,16,07,40,13.60
2008,09,16,07,41,13.60
2008,09,16,07,42,13.60
2008,09,16,07,43,13.60
2008,09,16,07,44,13.60
2008,09,16,07,45,13.60
2008,09,16,07,46,13.60
2008,09,16,07,47,13.60
2008,09,16,07,48,13.60
2008,09,16,07,49,13.60
2008,09,16,07,50,13.60
2008,09,16,07,51,13.60
2008,09,16,07,52,13.60
2008,09,16,07,53,13.60
2008,09,16,07,54,13.60
2008,09,16,07,55,13.70
2008,09,16,07,56,13.70
2008,09,16,07,57,13.70
2008,09,16,07,58,13.70
2008,09,16,07,59,13.70
2008,09,16,08,00,13.80
2008,09,16,08,01,13.80
2008,09,16,08,02,13.80
2008,09,16,08,03,13.90
2008,09,16,08,04,13.90
2008,09,16,08,05,13.90
2008,09,16,08,06,14.00
2008,09,16,08,07,14.00
2008,09,16,08,08,14.00
2008,09,16,08,09,14.00
2008,09,16,08,10,14.00
2008,09,16,08,11,14.00
2008,09,16,08,12,14.00
2008,09,16,08,13,13.90
2008,09,16,08,14,13.90
2008,09,16,08,15,13.90
2008,09,16,08,16,13.90
2008,09,16,08,17,13.90
2008,09,16,08,18,13.90
2008,09,16,08,19,14.00
2008,09,16,08,20,14.00
2008,09,16,08,21,14.00
2008,09,16,08,22,14.00
2008,09,16,08,23,14.10
2008,09,16,08,24,14.10
2008,09,16,08,25,14.20
2008,09,16,08,26,14.20
2008,09,16,08,27,14.20
2008,09,16,08,28,14.20
2008,09,16,08,29,14.20
2008,09,16,08,30,14.30
2008,09,16,08,31,14.40
2008,09,16,08,32,14.40
2008,09,16,08,33,14.50
2008,09,16,08,34,14.50
2008,09,16,08,35,14.60
2008,09,16,08,36,14.70
2008,09,16,08,37,14.70
2008,09,16,08,38,14.80
2008,09,16,08,39,14.80
2008,09,16,08,40,14.80
2008,09,16,08,41,14.80
2008,09,16,08,42,14.90
2008,09,16,08,43,14.90
2008,09,16,08,44,14.90
2008,09,16,08,45,15.00
2008,09,16,08,46,15.00
2008,09,16,08,47,15.10
2008,09,16,08,48,15.10
2008,09,16,08,49,15.20
2008,09,16,08,50,15.20
2008,09,16,08,51,15.20
2008,09,16,08,52,15.20
2008,09,16,08,53,15.20
2008,09,16,08,54,15.30
2008,09,16,08,55,15.30
2008,09,16,08,56,15.30
2008,09,16,08,57,15.30
2008,09,16,08,58,15.30
2008,09,16,08,59,15.30
2008,09,16,09,00,15.40
2008,09,16,09,01,15.40
2008,09,16,09,02,15.50
2008,09,16,09,03,15.50
2008,09,16,09,04,15.60
2008,09,16,09,05,15.70
2008,09,16,09,06,15.70
2008,09,16,09,07,15.80
2008,09,16,09,08,15.90
2008,09,16,09,09,15.90
2008,09,16,09,10,16.00
2008,09,16,09,11,16.10
2008,09,16,09,12,16.20
2008,09,16,09,13,16.30
2008,09,16,09,14,16.40
2008,09,16,09,15,16.40
2008,09,16,09,16,16.60
2008,09,16,09,17,16.60
2008,09,16,09,18,16.70
2008,09,16,09,19,16.70
2008,09,16,09,20,16.80
2008,09,16,09,21,16.90
2008,09,16,09,22,16.90
2008,09,16,09,23,16.90
2008,09,16,09,24,17.00
2008,09,16,09,25,17.00
2008,09,16,09,26,17.10
2008,09,16,09,27,17.20
2008,09,16,09,28,17.20
2008,09,16,09,29,17.30
2008,09,16,09,30,17.40
2008,09,16,09,31,17.50
2008,09,16,09,32,17.50
2008,09,16,09,33,17.60
2008,09,16,09,34,17.60
2008,09,16,09,35,17.70
2008,09,16,09,36,17.80
2008,09,16,09,37,17.80
2008,09,16,09,38,17.90
2008,09,16,09,39,17.90
2008,09,16,09,40,17.90
2008,09,16,09,41,18.00
2008,09,16,09,42,18.10
2008,09,16,09,43,18.20
2008,09,16,09,44,18.20
2008,09,16,09,45,18.30
2008,09,16,09,46,18.40
2008,09,16,09,47,18.50
2008,09,16,09,48,18.60
2008,09,16,09,49,18.70
2008,09,16,09,50,18.80
2008,09,16,09,51,18.90
2008,09,16,09,52,18.90
2008,09,16,09,53,19.00
2008,09,16,09,54,19.10
2008,09,16,09,55,19.10
2008,09,16,09,56,19.30
2008,09,16,09,57,19.30
2008,09,16,09,58,19.40
2008,09,16,09,59,19.60
2008,09,16,10,00,19.60
2008,09,16,10,01,19.70
2008,09,16,10,02,19.80
2008,09,16,10,03,19.90
2008,09,16,10,04,20.00
2008,09,16,10,05,20.20
2008,09,16,10,06,20.20
2008,09,16,10,07,20.20
2008,09,16,10,08,20.20
2008,09,16,10,09,20.20
2008,09,16,10,10,20.20
2008,09,16,10,11,20.30
2008,09,16,10,12,20.30
2008,09,16,10,13,20.30
2008,09,16,10,14,20.40
2008,09,16,10,15,20.40
2008,09,16,10,16,20.40
2008,09,16,10,17,20.40
2008,09,16,10,18,20.50
2008,09,16,10,19,20.50
2008,09,16,10,20,20.50
2008,09,16,10,21,20.50
2008,09,16,10,22,20.60
2008,09,16,10,23,20.60
2008,09,16,10,24,20.60
2008,09,16,10,25,20.60
2008,09,16,10,26,20.60
2008,09,16,10,27,20.50
2008,09,16,10,28,20.50
2008,09,16,10,29,20.50
2008,09,16,10,30,20.50
2008,09,16,10,31,20.50
2008,09,16,10,32,20.50
2008,09,16,10,33,20.50
2008,09,16,10,34,20.50
2008,09,16,10,35,20.60
2008,09,16,10,36,20.60
2008,09,16,10,37,20.70
2008,09,16,10,38,20.70
2008,09,16,10,39,20.60
2008,09,16,10,40,20.70
2008,09,16,10,41,20.70
2008,09,16,10,42,20.60
2008,09,16,10,43,20.60
2008,09,16,10,44,20.60
2008,09,16,10,45,20.50
2008,09,16,10,46,20.50
2008,09,16,10,47,20.50
2008,09,16,10,48,20.60
2008,09,16,10,49,20.60
2008,09,16,10,50,20.70
2008,09,16,10,51,20.70
2008,09,16,10,52,20.70
2008,09,16,10,53,20.70
2008,09,16,10,54,20.70
2008,09,16,10,55,20.80
2008,09,16,10,56,20.80
2008,09,16,10,57,20.90
2008,09,16,10,58,20.90
2008,09,16,10,59,21.00
2008,09,16,11,00,21.00
2008,09,16,11,01,21.10
2008,09,16,11,02,21.10
2008,09,16,11,03,21.10
2008,09,16,11,04,21.20
2008,09,16,11,05,21.20
2008,09,16,11,06,21.20
2008,09,16,11,07,21.10
2008,09,16,11,08,21.00
2008,09,16,11,09,20.90
2008,09,16,11,10,21.00
2008,09,16,11,11,21.00
2008,09,16,11,12,21.00
2008,09,16,11,13,21.00
2008,09,16,11,14,21.10
2008,09,16,11,15,21.20
2008,09,16,11,16,21.20
2008,09,16,11,17,21.30
2008,09,16,11,18,21.20
2008,09,16,11,19,21.20
2008,09,16,11,20,21.10
2008,09,16,11,21,21.00
2008,09,16,11,22,21.00
2008,09,16,11,23,20.90
2008,09,16,11,24,20.80
2008,09,16,11,25,20.80
2008,09,16,11,26,20.80
2008,09,16,11,27,20.80
2008,09,16,11,28,20.90
2008,09,16,11,29,21.00
2008,09,16,11,30,21.00
2008,09,16,11,31,21.10
2008,09,16,11,32,21.10
2008,09,16,11,33,21.20
2008,09,16,11,34,21.30
2008,09,16,11,35,21.30
2008,09,16,11,36,21.30
2008,09,16,11,37,21.30
2008,09,16,11,38,21.30
2008,09,16,11,39,21.30
2008,09,16,11,40,21.30
2008,09,16,11,41,21.30
2008,09,16,11,42,21.30
2008,09,16,11,43,21.30
2008,09,16,11,44,21.30
2008,09,16,11,45,21.30
2008,09,16,11,46,21.30
2008,09,16,11,47,21.20
2008,09,16,11,48,21.30
2008,09,16,11,49,21.30
2008,09,16,11,50,21.40
2008,09,16,11,51,21.50
2008,09,16,11,52,21.60
2008,09,16,11,53,21.60
2008,09,16,11,54,21.70
2008,09,16,11,55,21.80
2008,09,16,11,56,21.90
2008,09,16,11,57,21.90
2008,09,16,11,58,22.00
2008,09,16,11,59,22.10
2008,09,16,12,00,22.20
2008,09,16,12,01,22.30
2008,09,16,12,02,22.30
2008,09,16,12,03,22.30
2008,09,16,12,04,22.30
2008,09,16,12,05,22.30
2008,09,16,12,06,22.30
2008,09,16,12,07,22.30
2008,09,16,12,08,22.30
2008,09,16,12,09,22.30
2008,09,16,12,10,22.30
2008,09,16,12,11,22.40
2008,09,16,12,12,22.40
2008,09,16,12,13,22.50
2008,09,16,12,14,22.60
2008,09,16,12,15,22.70
2008,09,16,12,16,22.80
2008,09,16,12,17,22.80
2008,09,16,12,18,22.80
2008,09,16,12,19,22.90
2008,09,16,12,20,22.90
2008,09,16,12,21,23.00
2008,09,16,12,22,23.10
2008,09,16,12,23,23.10
2008,09,16,12,24,23.10
2008,09,16,12,25,23.10
2008,09,16,12,26,23.10
2008,09,16,12,27,23.20
2008,09,16,12,28,23.30
2008,09,16,12,29,23.30
2008,09,16,12,30,23.30
2008,09,16,12,31,23.40
2008,09,16,12,32,23.40
2008,09,16,12,33,23.50
2008,09,16,12,34,23.60
2008,09,16,12,35,23.60
2008,09,16,12,36,23.60
2008,09,16,12,37,23.60
2008,09,16,12,38,23.60
2008,09,16,12,39,23.60
2008,09,16,12,40,23.60
2008,09,16,12,41,23.70
2008,09,16,12,42,23.70
2008,09,16,12,43,23.70
2008,09,16,12,44,23.70
2008,09,16,12,45,23.70
2008,09,16,12,46,23.70
2008,09,16,12,47,23.70
2008,09,16,12,48,23.80
2008,09,16,12,49,23.80
2008,09,16,12,50,23.80
2008,09,16,12,51,23.90
2008,09,16,12,52,24.00
2008,09,16,12,53,24.10
2008,09,16,12,54,24.10
2008,09,16,12,55,24.20
2008,09,16,12,56,24.20
2008,09,16,12,57,24.30
2008,09,16,12,58,24.30
2008,09,16,12,59,24.30
2008,09,16,13,00,24.30
2008,09,16,13,01,24.30
2008,09,16,13,02,24.30
2008,09,16,13,03,24.40
2008,09,16,13,04,24.40
2008,09,16,13,05,24.40
2008,09,16,13,06,24.40
2008,09,16,13,07,24.40
2008,09,16,13,08,24.40
2008,09,16,13,09,24.40
2008,09,16,13,10,24.40
2008,09,16,13,11,24.40
2008,09,16,13,12,24.50
2008,09,16,13,13,24.50
2008,09,16,13,14,24.50
2008,09,16,13,15,24.50
2008,09,16,13,16,24.50
2008,09,16,13,17,24.60
2008,09,16,13,18,24.60
2008,09,16,13,19,24.60
2008,09,16,13,20,24.60
2008,09,16,13,21,24.60
2008,09,16,13,22,24.60
2008,09,16,13,23,24.60
2008,09,16,13,24,24.60
2008,09,16,13,25,24.60
2008,09,16,13,26,24.70
2008,09,16,13,27,24.70
2008,09,16,13,28,24.70
2008,09,16,13,29,24.80
2008,09,16,13,30,24.80
2008,09,16,13,31,24.70
2008,09,16,13,32,24.70
2008,09,16,13,33,24.70
2008,09,16,13,34,24.70
2008,09,16,13,35,24.80
2008,09,16,13,36,24.80
2008,09,16,13,37,24.90
2008,09,16,13,38,24.90
2008,09,16,13,39,25.00
2008,09,16,13,40,25.10
2008,09,16,13,41,25.10
2008,09,16,13,42,25.00
2008,09,16,13,43,25.10
2008,09,16,13,44,25.10
2008,09,16,13,45,25.10
2008,09,16,13,46,25.10
2008,09,16,13,47,25.20
2008,09,16,13,48,25.20
2008,09,16,13,49,25.20
2008,09,16,13,50,25.30
2008,09,16,13,51,25.30
2008,09,16,13,52,25.20
2008,09,16,13,53,25.30
2008,09,16,13,54,25.30
2008,09,16,13,55,25.40
2008,09,16,13,56,25.50
2008,09,16,13,57,25.50
2008,09,16,13,58,25.50
2008,09,16,13,59,25.60
2008,09,16,14,00,25.60
2008,09,16,14,01,25.70
2008,09,16,14,02,25.60
2008,09,16,14,03,25.60
2008,09,16,14,04,25.50
2008,09,16,14,05,25.50
2008,09,16,14,06,25.50
2008,09,16,14,07,25.50
2008,09,16,14,08,25.50
2008,09,16,14,09,25.50
2008,09,16,14,10,25.60
2008,09,16,14,11,25.60
2008,09,16,14,12,25.60
2008,09,16,14,13,25.60
2008,09,16,14,14,25.60
2008,09,16,14,15,25.60
2008,09,16,14,16,25.60
2008,09,16,14,17,25.60
2008,09,16,14,18,25.70
2008,09,16,14,19,25.70
2008,09,16,14,20,25.60
2008,09,16,14,21,25.60
2008,09,16,14,22,25.60
2008,09,16,14,23,25.60
2008,09,16,14,24,25.60
2008,09,16,14,25,25.60
2008,09,16,14,26,25.60
2008,09,16,14,27,25.60
2008,09,16,14,28,25.60
2008,09,16,14,29,25.60
2008,09,16,14,30,25.60
2008,09,16,14,31,25.60
2008,09,16,14,32,25.70
2008,09,16,14,33,25.70
2008,09,16,14,34,25.80
2008,09,16,14,35,25.90
2008,09,16,14,36,26.00
2008,09,16,14,37,26.00
2008,09,16,14,38,26.00
2008,09,16,14,39,26.00
2008,09,16,14,40,26.10
2008,09,16,14,41,26.10
2008,09,16,14,42,26.20
2008,09,16,14,43,26.20
2008,09,16,14,44,26.20
2008,09,16,14,45,26.20
2008,09,16,14,46,26.20
2008,09,16,14,47,26.10
2008,09,16,14,48,26.00
2008,09,16,14,49,25.90
2008,09,16,14,50,25.90
2008,09,16,14,51,25.90
2008,09,16,14,52,26.00
2008,09,16,14,53,26.00
2008,09,16,14,54,26.00
2008,09,16,14,55,26.00
2008,09,16,14,56,26.00
2008,09,16,14,57,26.00
2008,09,16,14,58,26.10
2008,09,16,14,59,26.10
2008,09,16,15,00,26.10
2008,09,16,15,01,26.10
2008,09,16,15,02,26.20
2008,09,16,15,03,26.20
2008,09,16,15,04,26.20
2008,09,16,15,05,26.20
2008,09,16,15,06,26.20
2008,09,16,15,07,26.20
2008,09,16,15,08,26.20
2008,09,16,15,09,26.20
2008,09,16,15,10,26.20
2008,09,16,15,11,26.20
2008,09,16,15,12,26.10
2008,09,16,15,13,26.10
2008,09,16,15,14,26.10
2008,09,16,15,15,26.10
2008,09,16,15,16,26.10
2008,09,16,15,17,26.00
2008,09,16,15,18,26.00
2008,09,16,15,19,25.90
2008,09,16,15,20,25.90
2008,09,16,15,21,25.80
2008,09,16,15,22,25.80
2008,09,16,15,23,25.80
2008,09,16,15,24,25.70
2008,09,16,15,25,25.60
2008,09,16,15,26,25.60
2008,09,16,15,27,25.60
2008,09,16,15,28,25.50
2008,09,16,15,29,25.50
2008,09,16,15,30,25.50
2008,09,16,15,31,25.50
2008,09,16,15,32,25.40
2008,09,16,15,33,25.40
2008,09,16,15,34,25.40
2008,09,16,15,35,25.40
2008,09,16,15,36,25.40
2008,09,16,15,37,25.40
2008,09,16,15,38,25.40
2008,09,16,15,39,25.40
2008,09,16,15,40,25.40
2008,09,16,15,41,25.50
2008,09,16,15,42,25.50
2008,09,16,15,43,25.50
2008,09,16,15,44,25.50
2008,09,16,15,45,25.50
2008,09,16,15,46,25.50
2008,09,16,15,47,25.50
2008,09,16,15,48,25.50
2008,09,16,15,49,25.60
2008,09,16,15,50,25.60
2008,09,16,15,51,25.60
2008,09,16,15,52,25.50
2008,09,16,15,53,25.50
2008,09,16,15,54,25.50
2008,09,16,15,55,25.50
2008,09,16,15,56,25.50
2008,09,16,15,57,25.50
2008,09,16,15,58,25.60
2008,09,16,15,59,25.60
2008,09,16,16,00,25.60
2008,09,16,16,01,25.60
2008,09,16,16,02,25.60
2008,09,16,16,03,25.50
2008,09,16,16,04,25.50
2008,09,16,16,05,25.40
2008,09,16,16,06,25.40
2008,09,16,16,07,25.40
2008,09,16,16,08,25.40
2008,09,16,16,09,25.30
2008,09,16,16,10,25.30
2008,09,16,16,11,25.20
2008,09,16,16,12,25.20
2008,09,16,16,13,25.10
2008,09,16,16,14,25.00
2008,09,16,16,15,24.90
2008,09,16,16,16,24.90
2008,09,16,16,17,24.80
2008,09,16,16,18,24.80
2008,09,16,16,19,24.70
2008,09,16,16,20,24.70
2008,09,16,16,21,24.70
2008,09,16,16,22,24.60
2008,09,16,16,23,24.60
2008,09,16,16,24,24.60
2008,09,16,16,25,24.50
2008,09,16,16,26,24.50
2008,09,16,16,27,24.40
2008,09,16,16,28,24.40
2008,09,16,16,29,24.30
2008,09,16,16,30,24.30
2008,09,16,16,31,24.30
2008,09,16,16,32,24.30
2008,09,16,16,33,24.20
2008,09,16,16,34,24.20
2008,09,16,16,35,24.10
2008,09,16,16,36,24.10
2008,09,16,16,37,24.10
2008,09,16,16,38,24.10
2008,09,16,16,39,24.10
2008,09,16,16,40,24.10
2008,09,16,16,41,24.10
2008,09,16,16,42,24.10
2008,09,16,16,43,24.10
2008,09,16,16,44,24.00
2008,09,16,16,45,23.90
2008,09,16,16,46,23.90
2008,09,16,16,47,23.80
2008,09,16,16,48,23.80
2008,09,16,16,49,23.80
2008,09,16,16,50,23.70
2008,09,16,16,51,23.70
2008,09,16,16,52,23.70
2008,09,16,16,53,23.70
2008,09,16,16,54,23.70
2008,09,16,16,55,23.60
2008,09,16,16,56,23.60
2008,09,16,16,57,23.60
2008,09,16,16,58,23.60
2008,09,16,16,59,23.50
2008,09,16,17,00,23.40
2008,09,16,17,01,23.40
2008,09,16,17,02,23.40
2008,09,16,17,03,23.40
2008,09,16,17,04,23.30
2008,09,16,17,05,23.30
2008,09,16,17,06,23.30
2008,09,16,17,07,23.30
2008,09,16,17,08,23.30
2008,09,16,17,09,23.30
2008,09,16,17,10,23.30
2008,09,16,17,11,23.30
2008,09,16,17,12,23.20
2008,09,16,17,13,23.20
2008,09,16,17,14,23.20
2008,09,16,17,15,23.20
2008,09,16,17,16,23.20
2008,09,16,17,17,23.20
2008,09,16,17,18,23.20
2008,09,16,17,19,23.20